Regional Weather Roundup
Issued by NWS

Home | Current Version | Previous Version | Graphics & Text | Print | Product List | Glossary On
Versions: 1 2 3 4 5 6 7 8 9 10 11 12 13 14 15 16 17 18 19 20 21 22 23 24 25 26 27 28 29 30 31 32 33 34 35 36 37 38 39 40 41 42 43 44 45 46 47 48 49 50
000
ASUS43 KLOT 291108
RWRIL

ILLINOIS REGIONAL WEATHER ROUNDUP
NATIONAL WEATHER SERVICE CHICAGO/ROMEOVILLE IL
600 AM CDT FRI MAY 29 2015

NOTE: "FAIR" INDICATES FEW OR NO CLOUDS BELOW 12,000 FEET WITH NO
SIGNIFICANT WEATHER AND/OR OBSTRUCTIONS TO VISIBILITY.

* THESE STATIONS ARE NOT UNDER NWS QUALITY CONTROL. THEY ALSO MAY NOT
  REPORT WEATHER SUCH AS PRECIPITATION OR FOG.

ILZ001-002-007-009-015-016-024-291200-
NORTHWEST ILLINOIS

CITY           SKY/WX    TMP DP  RH WIND       PRES   REMARKS
MOLINE         CLOUDY    67  62  84 S6        29.96S
STERLING*      CLOUDY    68  63  83 SE6       29.99S
SAVANNA*       MOCLDY    64  58  80 E3        29.97S
$$

ILZ003-004-008-010-011-017-018-291200-
NORTH CENTRAL ILLINOIS

CITY           SKY/WX    TMP DP  RH WIND       PRES   REMARKS
ROCKFORD       CLOUDY    66  59  78 S3        30.01S
FREEPORT*      MOCLDY    63  59  88 SE3       30.00S
ROCHELLE*      MOCLDY    64  61  87 S7        30.01S
DE KALB*       MOCLDY    62  58  84 S6        30.02F
PERU*          MOCLDY    67  63  85 S8        30.01F
$$

ILZ005-006-012>014-019>023-291200-
NORTHEAST ILLINOIS

CITY           SKY/WX    TMP DP  RH WIND       PRES   REMARKS
CHICAGO-OHARE  CLOUDY    65  60  84 S5        30.01S
CHICAGO-MIDWAY CLOUDY    72  64  76 S6        30.02S
AURORA         CLOUDY    67  60  78 S6        30.02S
LANSING*       CLOUDY    66  62  86 SE5       30.04R FOG
JOLIET*        CLOUDY    69  65  86 CALM      30.02S
WAUKEGAN       CLOUDY    60  57  89 S3        30.02R
DUPAGE AIRPORT CLOUDY    65  61  87 S5        30.02R
KANKAKEE*      CLOUDY    67  64  90 SE3       30.05R
WHEELING       CLOUDY    65  60  84 S5        30.03S
MORRIS*        CLOUDY    66  62  86 SE5       30.01S
ROMEOVILLE*    CLOUDY    67  62  85 S7        30.03R
NORTHERLY ISL    N/A     62  58  86 S1          N/A
$$

LMZ740>746-291200-
SOUTHERN LAKE MICHIGAN

STATION/POSITION SKY/WX   TEMP    WIND        PRES    VSBY  WAVE
                          AIR SEA DIR/SP/G                  HT/PER
                          (F)     (DEG/KT/KT) (MB)    (MI)  (FT/S)
SOUTHERN BUOY              47 38  160/ 10/ 12 1017.7R         1
HARRISON CRIB              62     150/  9/ 10   N/A
BURNHAM HARBOR             62     140/  2/  5   N/A
CALUMET HARBOR             71     170/  6/  9   N/A
BURNS HARBOR               71     160/  8/ 16 1017.6F
MICHIGAN CITY              69     130/ 10/ 12   N/A
MICHIGAN CITY 6N           62 55  170/  4/  6   N/A           1
ST. JOSEPH                 63 57  170/ 10/ 12   N/A           1
$$

ILZ025>027-034>036-040-047-049-050-058-095>099-291200-
WEST-CENTRAL ILLINOIS

CITY           SKY/WX    TMP DP  RH WIND       PRES   REMARKS
QUINCY         CLOUDY    68  65  90 S9        29.96S
GALESBURG*     MOCLDY    66  63  90 SE5       29.98R
MACOMB*        MOCLDY    66  64  94 S7        29.99F
JACKSONVILLE*  MOCLDY    71  66  85 S8        29.99R
PITTSFIELD*    CLOUDY    69  66  89 S6        30.00R
$$

ILZ028>032-037-038-041>044-048-051>054-059>061-291200-
CENTRAL ILLINOIS

CITY           SKY/WX    TMP DP  RH WIND       PRES   REMARKS
PONTIAC        MOCLDY    69  66  90 S7        30.03S
BLOOMINGTON    MOCLDY    67  65  93 S10       30.04R FOG
DECATUR        MOCLDY    67  64  90 S6        30.03S
PEORIA         MOCLDY    70  64  81 SE7       30.00S
LACON*         MOCLDY    66  63  89 SE8       29.99F
LINCOLN*       MOCLDY    67  65  90 SE5       30.00R
SPRINGFIELD    CLOUDY    70  65  84 S9        30.01R
TAYLORVILLE    MOCLDY    64  63  94 SE6       30.03R
$$

ILZ033-039-045-046-055>057-062-063-291200-
EAST-CENTRAL ILLINOIS

CITY           SKY/WX    TMP DP  RH WIND       PRES   REMARKS
CHAMPAIGN      MOCLDY    67  64  90 SE7       30.05S
DANVILLE*      MOCLDY    65  63  93 SE5       30.04S FOG
RANTOUL*       CLOUDY    68  65  91 SE3       30.05S FOG
PARIS*         PTCLDY    66  64  94 SE5       30.08R
$$

ILZ079-100>102-291200-
SOUTHWEST ILLINOIS

CITY           SKY/WX    TMP DP  RH WIND       PRES   REMARKS
ALTON          CLOUDY    68  68 100 SE5       30.02R
BELLEVILLE     MOCLDY    66  66 100 S3        30.01R
CAHOKIA*       CLOUDY    70  65  84 S3        30.01R
SPARTA*        MOCLDY    66  65  94 SE3       30.03R
$$

ILZ064>066-069>071-074>076-080>082-084>086-088>090-092>094-291200-
SOUTH-CENTRAL ILLINOIS

CITY           SKY/WX    TMP DP  RH WIND       PRES   REMARKS
CARBONDALE     PTCLDY    66  64  93 CALM      30.03S
CAIRO*         PTCLDY    66  66  99 SE6       30.05R
EFFINGHAM*     CLEAR     65  63  90 E3        30.06R
MARION         PTCLDY    66  64  94 S5        30.04S
MT. VERNON     PTCLDY    64  59  82 CALM      30.05R
CENTRALIA*     PTCLDY    66  64  93 SE5       30.04R
SALEM*         PTCLDY    69  65  87 SE5       30.05R
METROPOLIS*    CLEAR     66  66 100 CALM      30.06R FOG
$$

ILZ067-068-072-073-078-083-087-091-291200-
SOUTHEAST ILLINOIS

CITY           SKY/WX    TMP DP  RH WIND       PRES   REMARKS
LAWRENCEVILLE  CLEAR     65  63  93 E6        30.07R
FLORA*         CLEAR     64  64  97 SE6       30.06R
FAIRFIELD*     CLEAR     67  65  94 SE3       30.05R
HARRISBURG*    PTCLDY    64  64 100 CALM      30.07R FOG
ROBINSON*      CLEAR     65  63  93 CALM      30.08R
CARMI*         PTCLDY    64  61  88 CALM      30.06R FOG
$$

ABBREVIATIONS USED IN REMARKS
   TC - TEMPERATURE IN CELSIUS
  WCI - WIND CHILL INDEX
   HX - HEAT INDEX
  VSB - VISIBILITY
$$



USA.gov is the U.S. government's official web portal to all federal, state and local government web resources and services.